Back to catalog

NIMBUS 2 DEB

AliveLEO
NORAD 25526·DEBRIS·🇺🇸 United States

Launched May 15, 1966 from Vandenberg Space Force Base

Loading…

Next Passes (next 24 hours)

TLE

FreshSource: Space-Track

Epoch: Sep 13, 2026, 07:59 UTC

1 25526U 66040D   26256.33295146  .00002539  00000-0  24441-2 0  9996
2 25526 100.5802  21.6617 0039820 260.5899 125.2142 13.80891794677773

Track NIMBUS 2 DEB in real time with AllMySat

Download on the App Store